LB9CG Weather Reports


Display with metric or nautical units.
time (UTC)temp
F
wind
direction
speed
MPH
gust
MPH
rain 1hr
in
rain 24hr
in
rain mn
in
humidity
%
barometer
mb
20260901211125 46 0.0 0.0 0.00 0.00 0.00 97 1005.1
20260901210038 47 0.0 0.0 0.00 0.00 0.00 96 1005.2
20260901205101 47 0.0 0.0 0.00 0.00 0.00 96 1005.1
20260901204125 48 0.0 0.0 0.00 0.00 0.00 95 1005.1
20260901203037 48 0.0 0.0 0.00 0.00 0.00 94 1005.3
20260901202100 48 0.0 0.0 0.00 0.00 0.00 94 1005.4
20260901201124 48 306 0.0 1.0 0.00 0.00 0.00 94 1005.5
20260901200056 49 0.0 0.0 0.00 0.00 0.00 93 1005.5
20260901195100 49 0.0 0.0 0.00 0.00 0.00 92 1005.6
20260901194124 49 0.0 0.0 0.00 0.00 0.00 92 1005.8
20260901193036 49 309 1.0 1.0 0.00 0.00 0.00 91 1005.7
20260901192100 49 322 1.0 2.0 0.00 0.00 0.00 91 1005.7
20260901191124 50 279 1.0 2.0 0.00 0.01 0.00 90 1005.8
20260901190056 50 294 0.0 1.0 0.00 0.02 0.00 88 1005.7
20260901185120 50 300 1.0 2.0 0.00 0.02 0.00 87 1005.9
20260901184124 51 0.0 0.0 0.00 0.02 0.00 87 1006.1
20260901183037 51 314 1.0 2.0 0.00 0.03 0.00 87 1006.1
20260901182100 51 306 0.0 1.0 0.00 0.04 0.00 86 1006.1
20260901181124 51 9 1.0 1.0 0.00 0.06 0.00 85 1006.2
20260901180036 52 320 1.0 2.0 0.00 0.07 0.00 84 1006.1
20260901175100 52 332 1.0 1.0 0.00 0.08 0.00 83 1006.2
20260901174124 52 35 2.0 3.0 0.00 0.09 0.00 84 1006.2
20260901173036 52 316 0.0 1.0 0.00 0.10 0.00 85 1006.5
20260901172100 53 299 1.0 2.0 0.00 0.11 0.00 84 1006.4
20260901171124 53 0.0 0.0 0.00 0.11 0.00 84 1006.6
20260901170037 53 0.0 0.0 0.00 0.11 0.00 84 1006.5
20260901165100 53 0.0 0.0 0.00 0.12 0.00 83 1006.5
20260901164124 54 332 2.0 3.0 0.00 0.12 0.00 81 1006.7
20260901163037 54 0.0 0.0 0.00 0.13 0.00 80 1006.7
20260901162100 54 0.0 0.0 0.00 0.13 0.00 79 1006.8
20260901161124 55 9 1.0 2.0 0.00 0.13 0.00 78 1006.8
20260901160056 55 357 1.0 3.0 0.00 0.13 0.00 78 1006.7
20260901155120 56 357 1.0 2.0 0.00 0.14 0.00 78 1006.9
20260901154124 56 337 1.0 1.0 0.00 0.14 0.00 76 1006.9
20260901153056 56 22 1.0 2.0 0.00 0.14 0.00 75 1006.9
20260901152100 56 338 1.0 2.0 0.00 0.15 0.00 76 1007.0
20260901151124 56 0.0 0.0 0.00 0.15 0.00 75 1007.1
20260901150036 56 7 2.0 2.0 0.00 0.16 0.00 75 1007.0
20260901145120 57 324 0.0 1.0 0.00 0.17 0.00 74 1007.0
20260901144124 57 51 2.0 3.0 0.00 0.17 0.00 74 1007.1
20260901143036 57 18 1.0 2.0 0.00 0.18 0.00 75 1007.2
20260901142100 57 77 2.0 3.0 0.00 0.18 0.00 74 1007.2
20260901141124 57 107 2.0 4.0 0.00 0.19 0.00 72 1007.3
20260901140036 57 42 2.0 4.0 0.00 0.19 0.00 68 1007.4
20260901135100 59 292 1.0 4.0 0.00 0.19 0.00 65 1007.4
20260901134124 58 293 2.0 3.0 0.00 0.20 0.00 66 1007.1
20260901133036 60 236 1.0 1.0 0.00 0.20 0.00 65 1007.3
20260901132100 57 270 0.0 2.0 0.00 0.20 0.00 66 1007.4
20260901131144 56 246 1.0 2.0 0.00 0.20 0.00 70 1007.3
20260901130036 55 270 0.0 1.0 0.00 0.20 0.00 75 1007.3
20260901125100 55 0.0 0.0 0.00 0.20 0.00 75 1007.5
20260901124124 55 311 0.0 1.0 0.00 0.20 0.00 74 1007.3
20260901123036 55 312 0.0 1.0 0.00 0.20 0.00 76 1007.3
20260901122119 55 0.0 0.0 0.00 0.20 0.00 79 1007.4
20260901121143 55 0.0 0.0 0.00 0.20 0.00 77 1007.3
20260901120055 55 16 1.0 1.0 0.00 0.20 0.00 76 1007.3
20260901115100 56 37 2.0 3.0 0.00 0.20 0.00 74 1007.4
20260901114123 56 39 2.0 3.0 0.00 0.20 0.00 73 1007.3
20260901113035 56 341 1.0 1.0 0.00 0.20 0.00 74 1007.4
20260901111123 55 334 2.0 2.0 0.00 0.20 0.00 76 1007.3
20260901110035 55 318 0.0 1.0 0.00 0.20 0.00 78 1007.6
20260901105103 56 340 1.0 2.0 0.00 0.20 0.00 75 1007.5
20260901104126 56 294 2.0 4.0 0.00 0.20 0.00 77 1007.6
20260901103038 55 299 1.0 3.0 0.00 0.20 0.00 76 1007.3
20260901102102 54 326 2.0 3.0 0.00 0.20 0.00 80 1007.4
20260901101126 55 297 1.0 1.0 0.00 0.20 0.00 79 1007.4
20260901100038 56 317 1.0 3.0 0.00 0.20 0.00 78 1007.2
20260901095102 55 341 2.0 3.0 0.00 0.20 0.00 80 1007.3
20260901094126 54 314 2.0 2.0 0.00 0.20 0.00 81 1007.1
20260901093038 55 337 2.0 3.0 0.00 0.20 0.00 80 1007.2
20260901092101 56 334 1.0 2.0 0.00 0.20 0.00 82 1007.2
20260901091126 56 320 1.0 2.0 0.00 0.20 0.00 80 1007.1
20260901090037 56 304 2.0 4.0 0.00 0.20 0.00 81 1007.0
20260901085101 54 254 1.0 2.0 0.00 0.20 0.00 86 1007.0
20260901084125 54 264 0.0 1.0 0.00 0.20 0.00 84 1007.1
20260901083037 53 265 2.0 3.0 0.00 0.20 0.00 85 1007.1
20260901082101 53 293 1.0 3.0 0.00 0.20 0.00 88 1007.1
20260901081125 53 165 1.0 2.0 0.00 0.20 0.00 89 1007.0
20260901080057 53 225 1.0 1.0 0.00 0.20 0.00 90 1007.0
20260901075101 53 156 0.0 1.0 0.00 0.20 0.00 90 1007.2
20260901074125 52 167 1.0 2.0 0.00 0.20 0.00 93 1007.1
20260901073037 52 207 1.0 2.0 0.00 0.20 0.00 92 1006.9
20260901072121 51 0.0 0.0 0.00 0.20 0.00 96 1007.0
20260901071125 51 0.0 0.0 0.00 0.20 0.00 96 1007.0
20260901070117 51 0.0 0.0 0.00 0.20 0.00 97 1006.8
20260901065101 51 204 0.0 1.0 0.00 0.20 0.00 98 1006.8
20260901064145 50 0.0 0.0 0.00 0.20 0.00 99 1006.6
20260901063037 50 0.0 0.0 0.00 0.20 0.00 99 1006.7
20260901062101 50 153 0.0 2.0 0.00 0.20 0.00 99 1006.5
20260901061125 49 0.0 0.0 0.00 0.20 0.00 99 1006.7
20260901060037 49 0.0 0.0 0.00 0.20 0.00 99 1006.6
20260901055101 49 0.0 0.0 0.00 0.20 0.00 99 1006.3
20260901054125 48 0.0 0.0 0.00 0.20 0.00 99 1006.5
20260901053037 48 0.0 0.0 0.00 0.20 0.00 99 1006.4
20260901052101 47 0.0 0.0 0.00 0.20 0.00 99 1006.4
20260901051125 47 0.0 0.0 0.00 0.20 0.00 99 1006.4
20260901050037 47 0.0 0.0 0.00 0.20 0.00 99 1006.4
20260901045101 47 0.0 0.0 0.00 0.20 0.00 99 1006.3
20260901044125 46 0.0 0.0 0.00 0.20 0.00 99 1006.5
20260901043037 46 0.0 0.0 0.00 0.20 0.00 99 1006.4
20260901042101 46 0.0 0.0 0.00 0.20 0.00 99 1006.4
20260901041125 46 0.0 0.0 0.00 0.20 0.00 99 1006.4
20260901040057 45 288 0.0 1.0 0.00 0.20 0.00 99 1006.5
20260901035101 45 228 0.0 1.0 0.00 0.20 0.00 99 1006.6
20260901034125 46 0.0 0.0 0.00 0.20 0.00 99 1006.4
20260901033037 45 240 0.0 1.0 0.00 0.20 0.00 99 1006.5
20260901032120 45 0.0 0.0 0.00 0.20 0.00 99 1006.6
20260901031124 45 0.0 0.0 0.00 0.20 0.00 99 1006.6
20260901030036 46 0.0 0.0 0.00 0.20 0.00 99 1006.5
20260901025100 46 0.0 0.0 0.00 0.20 0.00 99 1006.5
20260901024124 46 0.0 0.0 0.00 0.20 0.00 99 1006.5
20260901023056 46 0.0 0.0 0.00 0.20 0.00 99 1006.5
20260901022120 46 0.0 0.0 0.00 0.20 0.00 99 1006.5
20260901021124 45 0.0 0.0 0.00 0.20 0.00 99 1006.4
20260901020036 45 0.0 0.0 0.00 0.20 0.00 99 1006.6
20260901015100 46 0.0 0.0 0.00 0.20 0.00 99 1006.3
20260901014124 46 0.0 0.0 0.00 0.20 0.00 99 1006.5
20260901013056 46 0.0 0.0 0.00 0.20 0.00 99 1006.4
20260901012120 47 0.0 0.0 0.00 0.20 0.00 99 1006.5
20260901011144 46 0.0 0.0 0.00 0.21 0.00 99 1006.4
20260901010036 47 0.0 0.0 0.00 0.21 0.00 99 1006.4
20260901005100 47 0.0 0.0 0.00 0.21 0.00 99 1006.2
20260901004144 47 0.0 0.0 0.00 0.21 0.00 99 1006.4
20260901003036 47 0.0 0.0 0.00 0.21 0.00 99 1006.3
20260901002100 47 0.0 0.0 0.00 0.21 0.00 99 1006.5
20260901001124 47 0.0 0.0 0.00 0.21 0.00 99 1006.6
20260901000036 47 0.0 0.0 0.00 0.21 0.00 99 1006.3
20260831235119 48 0.0 0.0 0.00 0.21 0.00 99 1006.5
20260831234124 48 0.0 0.0 0.00 0.21 0.00 99 1006.6
20260831233035 48 0.0 0.0 0.00 0.21 0.00 99 1006.6
20260831232100 47 0.0 0.0 0.00 0.21 0.00 99 1006.4
20260831231144 47 0.0 0.0 0.00 0.21 0.00 99 1006.6
20260831230035 47 0.0 0.0 0.00 0.21 0.21 99 1006.6
20260831225100 47 0.0 0.0 0.00 0.21 0.21 99 1006.6
20260831224125 48 0.0 0.0 0.00 0.21 0.21 99 1006.6
20260831223036 48 0.0 0.0 0.00 0.21 0.21 99 1006.6
20260831222101 48 0.0 0.0 0.00 0.21 0.21 99 1006.7
20260831221125 48 0.0 0.0 0.00 0.21 0.21 99 1006.5
20260831220036 48 0.0 0.0 0.00 0.21 0.21 99 1006.4
20260831215120 48 0.0 0.0 0.00 0.21 0.21 99 1006.2
20260831214124 48 0.0 0.0 0.00 0.21 0.21 99 1006.3
20260831213036 48 0.0 0.0 0.00 0.21 0.21 99 1006.4
20260831212100 49 0.0 0.0 0.00 0.21 0.21 98 1006.3